Flag for United Kingdom Weather past 2 weeks in Slough, England, United Kingdom

Now
52 °F

Passing clouds.


Feels Like: 50 °F
Forecast: 37 / 62 °F
Wind: 6 mph from North

Location: London City Airport

Current Time: Apr 19, 2015 at 5:21:26 PM

Latest Report: Apr 19, 2015 at 4:50 PM


Visibility: N/A

Pressure: 30.21 "Hg

Humidity: 62%

Dew point: 39 °F

Location of SloughLocation

Historic Weather in Slough — Graph

°F

Slough temperature yesterday

Maximum temperature yesterday: 55 °F (at 12:50 PM)
Minimum temperature yesterday: 41 °F (at 5:50 AM)
Average temperature yesterday: 49 °F

Past Weeks' High & Low Weather Summary

 TemperatureHumidityPressure
High77 °F (Apr 15, 3:20 PM)100% (Apr 9, 2:20 AM)30.66 "Hg (Apr 9, 2:20 AM)
Low41 °F (Apr 6, 5:50 AM)28% (Apr 15, 3:20 PM)29.89 "Hg (Apr 11, 3:20 AM)
Average53 °F66%30.27 "Hg
* Reported Apr 4 3:20 PM — Apr 19 3:50 PM, Slough, Weather by CustomWeather, © 2015

Note: Actual official high and low records may vary slightly from our data, if they occured in-between our weather recording intervals... More about our weather records

Advertising

Slough weather history for previous 24 hours

 ConditionsComfort  
Time TempWeatherWind HumidityBarometerVisibility
3:50 PM
Sun, Apr 19
50 °FPartly sunny.7 mph62%30.21 "HgN/A
3:20 PM50 °FPartly sunny.7 mph62%30.21 "HgN/A
2:50 PM50 °FPartly sunny.9 mph62%30.21 "HgN/A
2:20 PM50 °FBroken clouds.9 mph58%30.21 "HgN/A
1:50 PM50 °FBroken clouds.10 mph58%30.24 "HgN/A
1:20 PM50 °FPartly sunny.7 mph54%30.24 "HgN/A
12:50 PM50 °FPartly sunny.7 mph54%30.24 "HgN/A
12:20 PM50 °FPartly sunny.8 mph54%30.24 "HgN/A
11:50 AM48 °FOvercast.8 mph58%30.24 "HgN/A
11:20 AM48 °FOvercast.8 mph58%30.24 "HgN/A
10:50 AM48 °FOvercast.12 mph58%30.27 "HgN/A
10:20 AM48 °FOvercast.8 mph58%30.27 "HgN/A
9:50 AM46 °FPartly sunny.10 mph62%30.27 "HgN/A
9:20 AM46 °FOvercast.9 mph66%30.27 "HgN/A
8:50 AM46 °FPartly sunny.7 mph62%30.27 "HgN/A
8:20 AM45 °FPartly sunny.7 mph66%30.27 "HgN/A
7:50 AM43 °FPartly sunny.6 mph71%30.30 "HgN/A
7:20 AM43 °FPartly sunny.7 mph71%30.30 "HgN/A
6:50 AM43 °FPassing clouds.6 mph76%30.30 "HgN/A
6:20 AM41 °FPassing clouds.7 mph76%30.30 "HgN/A
5:50 AM41 °FOvercast.6 mph81%30.30 "HgN/A
5:20 AM41 °FOvercast.5 mph76%30.30 "HgN/A
4:50 AM41 °FOvercast.10 mph81%30.30 "HgN/A
4:20 AM41 °FOvercast.8 mph81%30.30 "HgN/A
3:50 AM41 °FOvercast.7 mph81%30.33 "HgN/A
3:20 AM41 °FOvercast.7 mph81%30.33 "HgN/A
2:50 AM41 °FOvercast.6 mph87%30.33 "HgN/A
2:20 AM43 °FOvercast.6 mph81%30.33 "HgN/A
1:50 AM43 °FOvercast.8 mph81%30.33 "HgN/A
1:20 AM43 °FOvercast.7 mph81%30.36 "HgN/A
12:20 AM45 °FPassing clouds.7 mph81%30.36 "HgN/A
11:50 PM
Sat, Apr 18
45 °FPassing clouds.8 mph81%30.36 "HgN/A
11:20 PM45 °FPassing clouds.12 mph81%30.36 "HgN/A
10:50 PM46 °FCool.9 mph71%30.36 "HgN/A
10:20 PM48 °FCool.10 mph66%30.36 "HgN/A
9:50 PM48 °FCool.14 mph66%30.36 "HgN/A
9:20 PM50 °FCool.10 mph58%30.33 "HgN/A
8:50 PM52 °FCool.15 mph50%30.33 "HgN/A
8:20 PM52 °FCool.13 mph54%30.33 "HgN/A
7:50 PM52 °FCool.15 mph54%30.33 "HgN/A
7:20 PM54 °FCool.17 mph47%30.33 "HgN/A
6:50 PM54 °FCool.20 mph44%30.33 "HgN/A
6:20 PM54 °FCool.18 mph44%30.33 "HgN/A
5:50 PM55 °FRefreshingly cool.17 mph47%30.33 "HgN/A
5:20 PM55 °FRefreshingly cool.17 mph41%30.33 "HgN/A
Weather by CustomWeather, © 2015

See weather overviewHow to use our weather pages